datetime,ave dewpoint
2004-10-20,33.5
2004-10-21,31.51
2004-10-22,33.39
2004-10-23,33.47
2004-10-24,28.53
2004-10-25,26.81
2004-10-26,30.0
2004-10-27,31.0
2004-10-28,35.0
2004-10-29,35.0
2004-10-30,31.0
2004-10-31,22.0
2004-11-01,23.0
2004-11-02,30.0
2004-11-03,25.0
2004-11-04,23.0
2004-11-05,24.94
2004-11-06,25.68
2004-11-07,25.94
2004-11-08,29.99
2004-11-09,34.47
2004-11-10,36.03
2004-11-11,35.86
2004-11-12,35.58
2004-11-13,34.2
2004-11-14,29.06
2004-11-15,32.33
2004-11-16,36.77
2004-11-17,29.0
2004-11-18,27.04
2004-11-19,18.67
2004-11-20,15.63
2004-11-21,15.74
2004-11-22,20.97
2004-11-23,24.88
2004-11-24,30.58
2004-11-25,34.21
2004-11-26,26.53
2004-11-27,20.67
2004-11-28,10.54
2004-11-29,9.66
2004-11-30,21.43
2004-12-01,24.42
2004-12-02,17.72
2004-12-03,15.23
2004-12-04,17.77
2004-12-05,22.53
2004-12-06,27.82
2004-12-07,29.99
2004-12-08,38.0
2004-12-09,42.0
2004-12-10,36.97
2004-12-11,35.58
2004-12-12,33.0
2004-12-13,35.0
2004-12-14,33.0
2004-12-15,25.19
2004-12-16,24.43
2004-12-17,23.83
2004-12-18,24.94
2004-12-19,24.97
2004-12-20,21.98
2004-12-21,19.62
2004-12-22,21.75
2004-12-23,19.03
2004-12-24,18.92
2004-12-25,19.22
2004-12-26,24.63
2004-12-27,25.51
2004-12-28,28.44
2004-12-29,31.0
2004-12-30,30.0
2004-12-31,26.0
2005-01-01,25.0
2005-01-02,23.0
2005-01-03,24.0
2005-01-04,20.0
2005-01-05,19.0
2005-01-06,20.0
2005-01-07,23.0
2005-01-08,22.1
2005-01-09,23.16
2005-01-10,22.0
2005-01-11,21.0
2005-01-12,5.0
2005-01-13,5.0
2005-01-14,15.37
2005-01-15,30.02
2005-01-16,30.18
2005-01-17,28.48
2005-01-18,30.15
2005-01-19,26.18
2005-01-20,23.95
2005-01-21,21.42
2005-01-22,22.53
2005-01-23,23.48
2005-01-24,25.24
2005-01-25,31.96
2005-01-26,35.83
2005-01-27,33.04
2005-01-28,30.0
2005-01-29,26.0
2005-01-30,25.0
2005-01-31,26.0
2005-02-01,20.02
2005-02-02,22.97
2005-02-03,25.82
2005-02-04,27.41
2005-02-05,21.16
2005-02-06,22.38
2005-02-07,20.21
2005-02-08,18.4
2005-02-09,21.16
2005-02-10,21.36
2005-02-11,22.61
2005-02-12,26.74
2005-02-13,31.82
2005-02-14,22.58
2005-02-15,18.51
2005-02-16,20.75
2005-02-17,25.16
2005-02-18,29.1
2005-02-19,34.04
2005-02-20,32.99
2005-02-21,28.32
2005-02-22,28.59
2005-02-23,27.49
2005-02-24,23.69
2005-02-25,24.04
2005-02-26,26.69
2005-02-27,30.37
2005-02-28,30.22
2005-03-01,27.28
2005-03-02,29.73
2005-03-03,26.06
2005-03-04,28.7
2005-03-05,27.31
2005-03-06,28.65
2005-03-07,31.56
2005-03-08,30.19
2005-03-09,29.97
2005-03-10,27.49
2005-03-11,28.35
2005-03-12,24.78
2005-03-13,12.51
2005-03-14,13.75
2005-03-15,16.05
2005-03-16,20.29
2005-03-17,23.98
2005-03-18,28.11
2005-03-19,34.48
2005-03-20,29.53
2005-03-21,29.58
2005-03-22,33.46
2005-03-23,29.09
2005-03-24,22.25
2005-03-25,23.71
2005-03-26,34.33
2005-03-27,35.27
2005-03-28,28.73
2005-03-29,27.47
2005-03-30,21.3
2005-03-31,23.81
2005-04-01,30.42
2005-04-02,29.85
2005-04-03,31.97
2005-04-04,24.73
2005-04-05,31.22
2005-04-06,31.98
2005-04-07,31.2
2005-04-08,29.02
2005-04-09,26.87
2005-04-10,26.5
2005-04-11,31.98
2005-04-12,22.86
2005-04-13,22.07
2005-04-14,20.07
2005-04-15,25.62
2005-04-16,35.17
2005-04-17,29.39
2005-04-18,24.36
2005-04-19,27.99
2005-04-20,32.1
2005-04-21,35.49
2005-04-22,30.72
2005-04-23,35.46
2005-04-24,33.85
2005-04-25,34.36
2005-04-26,34.04
2005-04-27,39.38
2005-04-28,38.03
2005-04-29,39.39
2005-04-30,40.59
2005-05-01,41.11
2005-05-02,44.02
2005-05-03,41.72
2005-05-04,44.25
2005-05-05,44.16
2005-05-06,41.97
2005-05-07,40.56
2005-05-08,40.79
2005-05-09,35.53
2005-05-10,35.0
2005-05-11,37.83
2005-05-12,38.84
2005-05-13,44.12
2005-05-14,49.92
2005-05-15,49.31
2005-05-16,37.61
2005-05-17,35.4
2005-05-18,40.17
2005-05-19,36.37
2005-05-20,38.27
2005-05-21,37.39
2005-05-22,37.03
2005-05-23,30.72
2005-05-24,35.0
2005-05-25,37.09
2005-05-26,41.9
2005-05-27,46.92
2005-05-28,45.54
2005-05-29,45.65
2005-05-30,46.56
2005-05-31,44.77
2005-06-01,36.15
2005-06-02,34.45
2005-06-03,36.91
2005-06-04,36.49
2005-06-05,33.76
2005-06-06,33.6
2005-06-07,31.02
2005-06-08,36.7
2005-06-09,39.7
2005-06-10,42.07
2005-06-11,37.97
2005-06-12,33.63
2005-06-13,39.58
2005-06-14,38.48
2005-06-15,38.1
2005-06-16,40.72
2005-06-17,36.37
2005-06-18,38.56
2005-06-19,40.84
2005-06-20,38.64
2005-06-21,38.86
2005-06-22,40.32
2005-06-23,42.08
2005-06-24,44.13
2005-06-25,47.82
2005-06-26,45.22
2005-06-27,48.79
2005-06-28,45.65
2005-06-29,43.08
2005-06-30,43.65
2005-07-01,42.82
2005-07-02,36.67
2005-07-03,38.01
2005-07-04,43.46
2005-07-05,46.36
2005-07-06,48.53
2005-07-07,48.42
2005-07-08,47.79
2005-07-09,47.49
2005-07-10,49.97
2005-07-11,47.35
2005-07-12,45.57
2005-07-13,42.22
2005-07-14,44.06
2005-07-15,49.54
2005-07-16,48.75
2005-07-17,45.31
2005-07-18,45.57
2005-07-19,44.08
2005-07-20,44.3
2005-07-21,50.63
2005-07-22,48.28
2005-07-23,45.41
2005-07-24,42.78
2005-07-25,34.23
2005-07-26,37.64
2005-07-27,39.26
2005-07-28,41.34
2005-07-29,48.37
2005-07-30,49.12
2005-07-31,51.38
2005-08-01,49.04
2005-08-02,48.02
2005-08-03,43.38
2005-08-04,44.69
2005-08-05,49.09
2005-08-06,49.43
2005-08-07,48.43
2005-08-08,45.86
2005-08-09,43.87
2005-08-10,41.71
2005-08-11,37.71
2005-08-12,36.1
2005-08-13,39.27
2005-08-14,39.43
2005-08-15,39.57
2005-08-16,43.63
2005-08-17,43.39
2005-08-18,45.93
2005-08-19,42.53
2005-08-20,42.15
2005-08-21,43.91
2005-08-22,44.39
2005-08-23,41.17
2005-08-24,40.13
2005-08-25,38.47
2005-08-26,32.51
2005-08-27,36.07
2005-08-28,39.55
2005-08-29,38.58
2005-08-30,32.24
2005-08-31,33.02
2005-09-01,37.86
2005-09-02,41.6
2005-09-03,39.27
2005-09-04,40.85
2005-09-05,37.06
2005-09-06,37.62
2005-09-07,38.21
2005-09-08,39.73
2005-09-09,37.29
2005-09-10,33.8
2005-09-11,31.44
2005-09-12,32.4
2005-09-13,33.15
2005-09-14,33.09
2005-09-15,32.89
2005-09-16,34.8
2005-09-17,37.63
2005-09-18,29.6
2005-09-19,30.04
2005-09-20,31.9
2005-09-21,32.51
2005-09-22,30.32
2005-09-23,35.24
2005-09-24,29.56
2005-09-25,27.23
2005-09-26,33.62
2005-09-27,38.34
2005-09-28,32.11
2005-09-29,32.09
2005-09-30,40.24
2005-10-01,40.64
2005-10-02,31.29
2005-10-03,32.36
2005-10-04,28.66
2005-10-05,29.1
2005-10-06,29.54
2005-10-07,31.82
2005-10-08,30.66
2005-10-09,32.61
2005-10-10,29.13
2005-10-11,41.69
2005-10-12,34.26
2005-10-13,33.65
2005-10-14,30.77
2005-10-15,37.46
2005-10-16,33.37
2005-10-17,35.26
2005-10-18,34.25
2005-10-19,37.33
2005-10-20,32.47
2005-10-21,30.65
2005-10-22,29.47
2005-10-23,27.02
2005-10-24,29.23
2005-10-25,32.65
2005-10-26,37.04
2005-10-27,31.43
2005-10-28,36.55
2005-10-29,32.15
2005-10-30,26.53
2005-10-31,34.34
2005-11-01,34.67
2005-11-02,31.66
2005-11-03,31.25
2005-11-04,30.94
2005-11-05,34.18
2005-11-06,36.78
2005-11-07,31.47
2005-11-08,28.1
2005-11-09,27.6
2005-11-10,27.5
2005-11-11,30.62
2005-11-12,30.11
2005-11-13,38.65
2005-11-14,35.12
2005-11-15,24.3
2005-11-16,24.11
2005-11-17,24.99
2005-11-18,23.52
2005-11-19,24.48
2005-11-20,27.5
2005-11-21,27.49
2005-11-22,25.59
2005-11-23,24.36
2005-11-24,28.18
2005-11-25,34.56
2005-11-26,21.69
2005-11-27,21.23
2005-11-28,24.33
2005-11-29,26.35
2005-11-30,21.22
2005-12-01,32.23
2005-12-02,21.26
2005-12-03,16.48
2005-12-04,17.08
2005-12-05,5.68
2005-12-06,7.19
2005-12-07,23.4
2005-12-08,29.12
2005-12-09,23.59
2005-12-10,17.03
2005-12-11,13.01
2005-12-12,10.25
2005-12-13,5.89
2005-12-14,-1.28
2005-12-15,1.81
2005-12-16,0.98
2005-12-17,4.7
2005-12-18,25.71
2005-12-19,36.88
2005-12-20,36.78
2005-12-21,39.37
2005-12-22,36.9
2005-12-23,34.0
2005-12-24,34.55
2005-12-25,38.02
2005-12-26,33.39
2005-12-27,34.01
2005-12-28,35.45
2005-12-29,29.26
2005-12-30,33.36
2005-12-31,34.18
2006-01-01,29.93
2006-01-02,29.61
2006-01-03,28.61
2006-01-04,30.31
2006-01-05,33.16
2006-01-06,30.39
2006-01-07,30.17
2006-01-08,27.38
2006-01-09,27.53
2006-01-10,34.44
2006-01-11,29.25
2006-01-12,29.64
2006-01-13,35.28
2006-01-14,29.94
2006-01-15,19.26
2006-01-16,26.72
2006-01-17,31.59
2006-01-18,28.28
2006-01-19,21.53
2006-01-20,26.35
2006-01-21,22.45
2006-01-22,15.63
2006-01-23,15.85
2006-01-24,19.78
2006-01-25,22.25
2006-01-26,22.84
2006-01-27,25.95
2006-01-28,29.44
2006-01-29,29.54
2006-01-30,30.76
2006-01-31,25.34
2006-02-01,32.91
2006-02-02,31.98
2006-02-03,32.06
2006-02-04,26.22
2006-02-05,17.94
2006-02-06,18.91
2006-02-07,20.07
2006-02-08,22.34
2006-02-09,26.03
2006-02-10,21.66
2006-02-11,22.07
2006-02-12,24.34
2006-02-13,25.07
2006-02-14,16.5
2006-02-15,11.05
2006-02-16,8.61
2006-02-17,11.09
2006-02-18,6.97
2006-02-19,6.2
2006-02-20,8.14
2006-02-21,21.2
2006-02-22,22.9
2006-02-23,23.78
2006-02-24,22.41
2006-02-25,25.09
2006-02-26,27.17
2006-02-27,36.72
2006-02-28,31.0
2006-03-01,26.87
2006-03-02,21.74
2006-03-03,24.04
2006-03-04,22.23
2006-03-05,23.45
2006-03-06,30.11
2006-03-07,26.26
2006-03-08,24.83
2006-03-09,18.96
2006-03-10,18.51
2006-03-11,17.22
2006-03-12,17.73
2006-03-13,20.56
2006-03-14,23.56
2006-03-15,26.36
2006-03-16,29.49
2006-03-17,26.58
2006-03-18,20.25
2006-03-19,18.25
2006-03-20,24.43
2006-03-21,28.57
2006-03-22,27.09
2006-03-23,26.89
2006-03-24,33.12
2006-03-25,30.3
2006-03-26,23.94
2006-03-27,27.17
2006-03-28,32.2
2006-03-29,25.67
2006-03-30,28.91
2006-03-31,30.78
2006-04-01,29.0
2006-04-02,31.86
2006-04-03,35.87
2006-04-04,32.85
2006-04-05,32.91
2006-04-06,29.66
2006-04-07,33.83
2006-04-08,30.66
2006-04-09,31.84
2006-04-10,31.53
2006-04-11,34.32
2006-04-12,37.48
2006-04-13,34.56
2006-04-14,33.25
2006-04-15,31.47
2006-04-16,24.23
2006-04-17,22.37
2006-04-18,22.98
2006-04-19,27.71
2006-04-20,31.05
2006-04-21,38.14
2006-04-22,30.74
2006-04-23,26.9
2006-04-24,29.83
2006-04-25,35.83
2006-04-26,32.59
2006-04-27,38.07
2006-04-28,40.47
2006-04-29,41.4
2006-04-30,27.36
2006-05-01,25.34
2006-05-02,22.43
2006-05-03,24.53
2006-05-04,26.0
2006-05-05,30.89
2006-05-06,35.77
2006-05-07,37.56
2006-05-08,30.34
2006-05-09,26.77
2006-05-10,32.27
2006-05-11,36.68
2006-05-12,31.45
2006-05-13,35.81
2006-05-14,40.63
2006-05-15,46.36
2006-05-16,47.96
2006-05-17,48.58
2006-05-18,51.02
2006-05-19,47.93
2006-05-20,43.78
2006-05-21,44.82
2006-05-22,40.89
2006-05-23,39.97
2006-05-24,41.26
2006-05-25,36.96
2006-05-26,32.35
2006-05-27,31.28
2006-05-28,33.23
2006-05-29,31.59
2006-05-30,34.75
2006-05-31,39.11
2006-06-01,47.16
2006-06-02,50.15
2006-06-03,48.19
2006-06-04,46.12
2006-06-05,44.54
2006-06-06,48.64
2006-06-07,44.63
2006-06-08,40.43
2006-06-09,38.68
2006-06-10,37.68
2006-06-11,46.26
2006-06-12,44.69
2006-06-13,42.07
2006-06-14,41.99
2006-06-15,43.89
2006-06-16,45.15
2006-06-17,36.66
2006-06-18,40.04
2006-06-19,36.84
2006-06-20,38.49
2006-06-21,39.01
2006-06-22,38.34
2006-06-23,39.01
2006-06-24,42.62
2006-06-25,44.61
2006-06-26,44.77
2006-06-27,48.32
2006-06-28,55.24
2006-06-29,56.79
2006-06-30,50.0
2006-07-01,51.71
2006-07-02,52.08
2006-07-03,50.73
2006-07-04,41.6
2006-07-05,43.24
2006-07-06,43.81
2006-07-07,38.64
2006-07-08,43.99
2006-07-09,47.73
2006-07-10,50.29
2006-07-11,46.7
2006-07-12,45.68
2006-07-13,42.72
2006-07-14,46.4
2006-07-15,49.81
2006-07-16,48.46
2006-07-17,45.49
2006-07-18,42.58
2006-07-19,44.51
2006-07-20,48.41
2006-07-21,53.97
2006-07-22,58.1
2006-07-23,54.17
2006-07-24,54.15
2006-07-25,52.3
2006-07-26,48.92
2006-07-27,48.34
2006-07-28,49.27
2006-07-29,44.01
2006-07-30,36.19
2006-07-31,38.11
2006-08-01,38.5
2006-08-02,39.94
2006-08-03,40.71
2006-08-04,43.19
2006-08-05,46.07
2006-08-06,49.56
2006-08-07,51.23
2006-08-08,49.04
2006-08-09,42.63
2006-08-10,44.13
2006-08-11,42.02
2006-08-12,38.77
2006-08-13,37.76
2006-08-14,41.49
2006-08-15,44.56
2006-08-16,39.87
2006-08-17,32.92
2006-08-18,35.21
2006-08-19,35.2
2006-08-20,40.24
2006-08-21,38.9
2006-08-22,36.5
2006-08-23,38.15
2006-08-24,39.78
2006-08-25,36.95
2006-08-26,39.25
2006-08-27,39.42
2006-08-28,37.7
2006-08-29,37.86
2006-08-30,30.85
2006-08-31,27.11
2006-09-01,29.59
2006-09-02,33.81
2006-09-03,35.17
2006-09-04,34.81
2006-09-05,34.57
2006-09-06,40.18
2006-09-07,38.96
2006-09-08,40.87
2006-09-09,39.29
2006-09-10,37.06
2006-09-11,36.2
2006-09-12,36.26
2006-09-13,33.87
2006-09-14,24.71
2006-09-15,31.82
2006-09-16,31.17
2006-09-17,32.45
2006-09-18,38.1
2006-09-19,36.01
2006-09-20,31.69
2006-09-21,37.08
2006-09-22,27.9
2006-09-23,27.05
2006-09-24,24.26
2006-09-25,24.32
2006-09-26,24.7
2006-09-27,26.53
2006-09-28,26.72
2006-09-29,24.65
2006-09-30,28.22
2006-10-01,30.72
2006-10-02,34.38
2006-10-03,34.88
2006-10-04,33.09
2006-10-05,41.09
2006-10-06,37.09
2006-10-07,32.24
2006-10-08,29.97
2006-10-09,31.99
2006-10-10,24.9
2006-10-11,24.18
2006-10-12,24.18
2006-10-13,24.76
2006-10-14,26.52
2006-10-15,35.28
2006-10-16,34.77
2006-10-17,31.48
2006-10-18,29.05
2006-10-19,41.5
2006-10-20,30.09
2006-10-21,24.69
2006-10-22,24.37
2006-10-23,25.7
2006-10-24,24.49
2006-10-25,19.62
2006-10-26,18.02
2006-10-27,19.82
2006-10-28,18.63
2006-10-29,22.43
2006-10-30,17.17
2006-10-31,13.71
2006-11-01,19.8
2006-11-02,38.85
2006-11-03,40.32
2006-11-04,40.81
2006-11-05,43.38
2006-11-06,47.03
2006-11-07,47.08
2006-11-08,32.33
2006-11-09,26.24
2006-11-10,22.02
2006-11-11,26.99
2006-11-12,23.66
2006-11-13,32.88
2006-11-14,26.14
2006-11-15,29.2
2006-11-16,36.93
2006-11-17,34.78
2006-11-18,34.4
2006-11-19,40.67
2006-11-20,40.73
2006-11-21,34.57
2006-11-22,31.66
2006-11-23,25.12
2006-11-24,26.51
2006-11-25,27.32
2006-11-26,29.01
2006-11-27,20.18
2006-11-28,14.67
2006-11-29,2.55
2006-11-30,18.49
2006-12-01,18.63
2006-12-02,9.47
2006-12-03,11.12
2006-12-04,13.59
2006-12-05,19.81
2006-12-06,17.08
2006-12-07,19.1
2006-12-08,23.19
2006-12-09,33.62
2006-12-10,31.02
2006-12-11,32.35
2006-12-12,35.98
2006-12-13,38.88
2006-12-14,40.39
2006-12-15,22.18
2006-12-16,15.44
2006-12-17,12.18
2006-12-18,9.64
2006-12-19,13.55
2006-12-20,15.42
2006-12-21,29.09
2006-12-22,25.9
2006-12-23,28.86
2006-12-24,33.31
2006-12-25,31.14
2006-12-26,29.8
2006-12-27,23.65
2006-12-28,14.64
2006-12-29,13.95
2006-12-30,19.09
2006-12-31,23.38
2007-01-01,22.03
2007-01-02,29.22
2007-01-03,32.2
2007-01-04,22.48
2007-01-05,12.89
2007-01-06,27.13
2007-01-07,28.29
2007-01-08,27.41
2007-01-09,26.2
2007-01-10,19.99
2007-01-11,8.74
2007-01-12,-0.26
2007-01-13,0.41000000000000003
2007-01-14,9.68
2007-01-15,7.18
2007-01-16,14.46
2007-01-17,16.18
2007-01-18,12.36
2007-01-19,19.13
2007-01-20,13.72
2007-01-21,12.05
2007-01-22,13.78
2007-01-23,17.26
2007-01-24,18.32
2007-01-25,19.53
2007-01-26,21.43
2007-01-27,18.58
2007-01-28,16.35
2007-01-29,17.43
2007-01-30,16.82
2007-01-31,13.89
2007-02-01,11.02
2007-02-02,11.5
2007-02-03,18.61
2007-02-04,26.16
2007-02-05,29.92
2007-02-06,26.65
2007-02-07,32.99
2007-02-08,32.79
2007-02-09,35.29
2007-02-10,37.27
2007-02-11,31.66
2007-02-12,29.39
2007-02-13,27.55
2007-02-14,27.93
2007-02-15,36.84
2007-02-16,37.57
2007-02-17,31.22
2007-02-18,24.77
2007-02-19,24.79
2007-02-20,29.36
2007-02-21,31.18
2007-02-22,27.35
2007-02-23,14.62
2007-02-24,27.34
2007-02-25,25.11
2007-02-26,21.76
2007-02-27,17.74
2007-02-28,16.28
2007-03-01,24.58
2007-03-02,30.43
2007-03-03,32.11
2007-03-04,28.24
2007-03-05,28.62
2007-03-06,27.41
2007-03-07,32.12
2007-03-08,27.19
2007-03-09,33.25
2007-03-10,32.64
2007-03-11,37.12
2007-03-12,38.38
2007-03-13,33.44
2007-03-14,23.58
2007-03-15,26.77
2007-03-16,31.89
2007-03-17,32.63
2007-03-18,30.62
2007-03-19,32.58
2007-03-20,29.65
2007-03-21,19.22
2007-03-22,27.76
2007-03-23,32.19
2007-03-24,37.02
2007-03-25,35.27
2007-03-26,32.49
2007-03-27,21.83
2007-03-28,18.32
2007-03-29,23.43
2007-03-30,25.71
2007-03-31,31.95
2007-04-01,29.83
2007-04-02,21.46
2007-04-03,25.3
2007-04-04,33.16
2007-04-05,32.43
2007-04-06,35.59
2007-04-07,37.73
2007-04-08,33.15
2007-04-09,30.12
2007-04-10,22.08
2007-04-11,30.37
2007-04-12,23.88
2007-04-13,28.27
2007-04-14,34.56
2007-04-15,25.63
2007-04-16,32.72
2007-04-17,27.76
2007-04-18,21.25
2007-04-19,25.93
2007-04-20,27.48
2007-04-21,32.31
2007-04-22,32.55
2007-04-23,31.62
2007-04-24,34.45
2007-04-25,34.46
2007-04-26,32.8
2007-04-27,35.69
2007-04-28,39.06
2007-04-29,38.95
2007-04-30,35.62
2007-05-01,36.36
2007-05-02,33.08
2007-05-03,27.26
2007-05-04,30.46
2007-05-05,24.77
2007-05-06,37.73
2007-05-07,39.09
2007-05-08,40.24
2007-05-09,42.71
2007-05-10,41.37
2007-05-11,37.98
2007-05-12,33.09
2007-05-13,26.58
2007-05-14,28.01
2007-05-15,33.87
2007-05-16,41.49
2007-05-17,39.92
2007-05-18,38.24
2007-05-19,37.0
2007-05-20,37.91
2007-05-21,27.17
2007-05-22,26.42
2007-05-23,27.83
2007-05-24,41.6
2007-05-25,41.8
2007-05-26,41.41
2007-05-27,39.06
2007-05-28,24.73
2007-05-29,31.26
2007-05-30,36.97
2007-05-31,42.32
2007-06-01,45.17
2007-06-02,48.14
2007-06-03,42.9
2007-06-04,46.96
2007-06-05,39.75
2007-06-06,31.11
2007-06-07,32.98
2007-06-08,36.35
2007-06-09,44.42
2007-06-10,44.44
2007-06-11,33.18
2007-06-12,37.15
2007-06-13,44.15
2007-06-14,43.37
2007-06-15,43.59
2007-06-16,37.14
2007-06-17,35.41
2007-06-18,37.68
2007-06-19,44.15
2007-06-20,42.28
2007-06-21,42.03
2007-06-22,41.28
2007-06-23,35.24
2007-06-24,31.66
2007-06-25,26.14
2007-06-26,35.29
2007-06-27,43.31
2007-06-28,44.27
2007-06-29,44.0
2007-06-30,40.27
2007-07-01,41.81
2007-07-02,43.03
2007-07-03,43.66
2007-07-04,49.52
2007-07-05,50.76
2007-07-06,57.4
2007-07-07,54.56
2007-07-08,48.11
2007-07-09,48.64
2007-07-10,47.16
2007-07-11,56.07
2007-07-12,51.27
2007-07-13,42.54
2007-07-14,43.14
2007-07-15,45.09
2007-07-16,42.6
2007-07-17,41.56
2007-07-18,50.09
2007-07-19,43.31
2007-07-20,44.78
2007-07-21,50.04
2007-07-22,51.72
2007-07-23,53.05
2007-07-24,51.5
2007-07-25,49.01
2007-07-26,48.17
2007-07-27,47.33
2007-07-28,47.91
2007-07-29,46.96
2007-07-30,45.71
2007-07-31,39.95
2007-08-01,41.15
2007-08-02,46.8
2007-08-03,38.75
2007-08-04,37.13
2007-08-05,36.39
2007-08-06,40.32
2007-08-07,36.34
2007-08-08,41.57
2007-08-09,42.79
2007-08-10,37.67
2007-08-11,39.94
2007-08-12,36.04
2007-08-13,33.06
2007-08-14,28.3
2007-08-15,28.89
2007-08-16,36.47
2007-08-17,37.52
2007-08-18,37.25
2007-08-19,47.62
2007-08-20,46.77
2007-08-21,52.38
2007-08-22,44.92
2007-08-23,39.67
2007-08-24,37.86
2007-08-25,41.11
2007-08-26,39.18
2007-08-27,41.04
2007-08-28,40.01
2007-08-29,43.32
2007-08-30,51.66
2007-08-31,53.35
2007-09-01,45.7
2007-09-02,42.06
2007-09-03,42.23
2007-09-04,43.36
2007-09-05,42.3
2007-09-06,42.82
2007-09-07,39.43
2007-09-08,35.47
2007-09-09,29.07
2007-09-10,27.92
2007-09-11,30.07
2007-09-12,36.17
2007-09-13,33.37
2007-09-14,33.42
2007-09-15,33.71
2007-09-16,35.02
2007-09-17,39.84
2007-09-18,33.48
2007-09-19,35.07
2007-09-20,36.84
2007-09-21,36.9
2007-09-22,39.99
2007-09-23,29.97
2007-09-24,27.1
2007-09-25,26.54
2007-09-26,30.23
2007-09-27,29.95
2007-09-28,31.97
2007-09-29,26.82
2007-09-30,32.86
2007-10-01,35.71
2007-10-02,32.32
2007-10-03,35.67
2007-10-04,27.47
2007-10-05,27.13
2007-10-06,28.69
2007-10-07,34.96
2007-10-08,33.03
2007-10-09,25.87
2007-10-10,35.68
2007-10-11,32.54
2007-10-12,36.48
2007-10-13,34.33
2007-10-14,32.09
2007-10-15,37.43
2007-10-16,37.06
2007-10-17,31.86
2007-10-18,39.35
2007-10-19,40.86
2007-10-20,29.86
2007-10-21,27.81
2007-10-22,31.83
2007-10-23,35.53
2007-10-24,34.54
2007-10-25,28.12
2007-10-26,20.66
2007-10-27,26.8
2007-10-28,30.95
2007-10-29,35.06
2007-10-30,38.33
2007-10-31,28.56
2007-11-01,27.13
2007-11-02,23.18
2007-11-03,24.15
2007-11-04,25.76
2007-11-05,26.47
2007-11-06,25.42
2007-11-07,24.83
2007-11-08,25.93
2007-11-09,31.94
2007-11-10,39.08
2007-11-11,27.88
2007-11-12,33.18
2007-11-13,34.27
2007-11-14,29.4
2007-11-15,40.23
2007-11-16,42.29
2007-11-17,44.72
2007-11-18,42.45
2007-11-19,30.41
2007-11-20,20.65
2007-11-21,19.5
2007-11-22,18.26
2007-11-23,16.73
2007-11-24,19.97
2007-11-25,24.57
2007-11-26,25.08
2007-11-27,23.34
2007-11-28,18.24
2007-11-29,22.27
2007-11-30,16.56
2007-12-01,13.7
2007-12-02,24.7
2007-12-03,35.07
2007-12-04,36.01
2007-12-05,30.27
2007-12-06,31.78
2007-12-07,27.69
2007-12-08,18.97
2007-12-09,11.47
2007-12-10,18.22
2007-12-11,13.27
2007-12-12,20.78
2007-12-13,16.81
2007-12-14,18.49
2007-12-15,26.73
2007-12-16,25.7
2007-12-17,27.77
2007-12-18,30.9
2007-12-19,30.52
2007-12-20,20.75
2007-12-21,5.2
2007-12-22,16.32
2007-12-23,34.11
2007-12-24,21.14
2007-12-25,13.49
2007-12-26,15.51
2007-12-27,14.62
2007-12-28,24.8
2007-12-29,28.41
2007-12-30,18.47
2007-12-31,7.54
2008-01-01,13.07
2008-01-02,20.46
2008-01-03,25.03
2008-01-04,31.44
2008-01-05,24.69
2008-01-06,19.53
2008-01-07,19.07
2008-01-08,26.39
2008-01-09,23.18
2008-01-10,31.43
2008-01-11,28.22
2008-01-12,29.32
2008-01-13,24.87
2008-01-14,19.46
2008-01-15,12.07
2008-01-16,3.92
2008-01-17,6.95
2008-01-18,10.03
2008-01-19,12.26
2008-01-20,21.64
2008-01-21,7.57
2008-01-22,-3.44
2008-01-23,-2.75
2008-01-24,6.93
2008-01-25,9.5
2008-01-26,28.9
2008-01-27,28.01
2008-01-28,14.73
2008-01-29,19.67
2008-01-30,19.04
2008-01-31,25.19
2008-02-01,20.35
2008-02-02,24.23
2008-02-03,21.14
2008-02-04,15.32
2008-02-05,16.18
2008-02-06,22.6
2008-02-07,26.53
2008-02-08,19.07
2008-02-09,20.03
2008-02-10,22.51
2008-02-11,26.96
2008-02-12,22.9
2008-02-13,18.34
2008-02-14,14.33
2008-02-15,16.85
2008-02-16,19.14
2008-02-17,17.7
2008-02-18,16.8
2008-02-19,22.73
2008-02-20,28.89
2008-02-21,27.9
2008-02-22,27.15
2008-02-23,25.82
2008-02-24,30.95
2008-02-25,30.3
2008-02-26,25.97
2008-02-27,26.99
2008-02-28,25.3
2008-02-29,28.97
2008-03-01,25.18
2008-03-02,15.88
2008-03-03,20.18
2008-03-04,17.49
2008-03-05,17.03
2008-03-06,19.55
2008-03-07,22.68
2008-03-08,27.8
2008-03-09,26.16
2008-03-10,30.46
2008-03-11,26.42
2008-03-12,27.96
2008-03-13,30.05
2008-03-14,27.46
2008-03-15,24.7
2008-03-16,20.28
2008-03-17,28.74
2008-03-18,35.83
2008-03-19,31.42
2008-03-20,23.91
2008-03-21,20.12
2008-03-22,21.2
2008-03-23,29.33
2008-03-24,34.25
2008-03-25,27.95
2008-03-26,25.83
2008-03-27,15.37
2008-03-28,23.02
2008-03-29,12.78
2008-03-30,14.94
2008-03-31,11.13
2008-04-01,13.9
2008-04-02,16.71
2008-04-03,19.1
2008-04-04,22.12
2008-04-05,25.29
2008-04-06,26.92
2008-04-07,20.37
2008-04-08,25.11
2008-04-09,25.95
2008-04-10,21.61
2008-04-11,25.24
2008-04-12,28.02
2008-04-13,30.6
2008-04-14,28.63
2008-04-15,19.03
2008-04-16,24.58
2008-04-17,27.22
2008-04-18,24.3
2008-04-19,16.47
2008-04-20,16.78
2008-04-21,18.92
2008-04-22,31.26
2008-04-23,24.69
2008-04-24,24.68
2008-04-25,27.96
2008-04-26,33.5
2008-04-27,34.91
2008-04-28,32.79
2008-04-29,28.98
2008-04-30,20.84
2008-05-01,18.04
2008-05-02,27.78
2008-05-03,32.75
2008-05-04,32.91
2008-05-05,33.32
2008-05-06,35.74
2008-05-07,28.65
2008-05-08,27.99
2008-05-09,26.34
2008-05-10,34.63
2008-05-11,28.96
2008-05-12,25.33
2008-05-13,37.89
2008-05-14,43.21
2008-05-15,45.79
2008-05-16,44.7
2008-05-17,46.13
2008-05-18,44.72
2008-05-19,43.88
2008-05-20,41.32
2008-05-21,29.86
2008-05-22,29.03
2008-05-23,36.39
2008-05-24,40.3
2008-05-25,42.16
2008-05-26,45.55
2008-05-27,46.55
2008-05-28,45.2
2008-05-29,43.53
2008-05-30,45.46
2008-05-31,45.54
2008-06-01,39.56
2008-06-02,33.07
2008-06-03,43.39
2008-06-04,32.57
2008-06-05,35.97
2008-06-06,32.0
2008-06-07,32.12
2008-06-08,32.35
2008-06-09,42.51
2008-06-10,30.38
2008-06-11,29.73
2008-06-12,30.39
2008-06-13,36.48
2008-06-14,41.05
2008-06-15,41.09
2008-06-16,40.68
2008-06-17,36.59
2008-06-18,34.16
2008-06-19,37.81
2008-06-20,41.2
2008-06-21,45.31
2008-06-22,30.75
2008-06-23,37.12
2008-06-24,40.3
2008-06-25,40.1
2008-06-26,42.48
2008-06-27,47.94
2008-06-28,49.69
2008-06-29,50.28
2008-06-30,45.86
2008-07-01,45.01
2008-07-02,49.25
2008-07-03,47.52
2008-07-04,48.91
2008-07-05,47.65
2008-07-06,47.88
2008-07-07,40.41
2008-07-08,42.81
2008-07-09,43.36
2008-07-10,43.6
2008-07-11,32.35
2008-07-12,38.18
2008-07-13,38.87
2008-07-14,46.07
2008-07-15,49.27
2008-07-16,48.08
2008-07-17,46.61
2008-07-18,38.12
2008-07-19,40.63
2008-07-20,42.62
2008-07-21,50.84
2008-07-22,49.95
2008-07-23,40.35
2008-07-24,42.04
2008-07-25,45.83
2008-07-26,42.32
2008-07-27,42.32
2008-07-28,43.94
2008-07-29,43.28
2008-07-30,42.03
2008-07-31,41.49
2008-08-01,42.51
2008-08-02,42.37
2008-08-03,42.85
2008-08-04,41.28
2008-08-05,39.05
2008-08-06,50.55
2008-08-07,51.55
2008-08-08,44.32
2008-08-09,40.23
2008-08-10,40.53
2008-08-11,42.73
2008-08-12,44.14
2008-08-13,46.5
2008-08-14,43.05
2008-08-15,43.94
2008-08-16,45.6
2008-08-17,49.07
2008-08-18,48.56
2008-08-19,47.87
2008-08-20,50.15
2008-08-21,44.82
2008-08-22,40.24
2008-08-23,43.16
2008-08-24,45.51
2008-08-25,40.52
2008-08-26,30.97
2008-08-27,38.49
2008-08-28,38.72
2008-08-29,41.61
2008-08-30,40.65
2008-08-31,26.92
2008-09-01,28.59
2008-09-02,27.87
2008-09-03,33.97
2008-09-04,34.72
2008-09-05,35.47
2008-09-06,36.01
2008-09-07,38.63
2008-09-08,36.87